DW5735 Weather Reports


Display with metric or nautical units.
time (UTC)temp
F
wind
direction
speed
MPH
gust
MPH
rain 1hr
in
rain 24hr
in
rain mn
in
humidity
%
barometer
mb
20260509231321 74 211 2.0 7.0 0.00 0.00 0.00 32 1015.0
20260509230831 73 222 3.0 8.0 0.00 0.00 0.00 33 1015.1
20260509230347 73 204 4.0 9.0 0.00 0.00 0.00 33 1015.1
20260509230008 72 215 4.0 9.0 0.00 0.00 0.00 36 1014.5
20260509225829 72 238 6.0 9.0 0.00 0.00 0.00 35 1015.1
20260509225352 72 235 4.0 8.0 0.00 0.00 0.00 36 1015.1
20260509224822 71 232 5.0 7.0 0.00 0.00 0.00 40 1015.2
20260509224603 71 226 5.0 8.0 0.00 0.00 0.00 41 1014.6
20260509224341 72 248 3.0 5.0 0.00 0.00 0.00 43 1015.3
20260509223821 71 236 3.0 5.0 0.00 0.00 0.00 42 1015.3
20260509223328 71 242 4.0 5.0 0.00 0.00 0.00 40 1015.3
20260509223101 71 233 3.0 6.0 0.00 0.00 0.00 41 1014.8
20260509222858 71 235 2.0 6.0 0.00 0.00 0.00 43 1015.4
20260509222337 71 210 4.0 6.0 0.00 0.00 0.00 45 1015.6
20260509221832 71 222 4.0 6.0 0.00 0.00 0.00 42 1015.6
20260509221605 70 191 3.0 7.0 0.00 0.00 0.00 42 1015.1
20260509221323 70 218 5.0 7.0 0.00 0.00 0.00 43 1015.7
20260509220835 69 238 5.0 8.0 0.00 0.00 0.00 45 1015.7
20260509220336 68 218 5.0 7.0 0.00 0.00 0.00 47 1015.9
20260509215903 67 240 7.0 8.0 0.00 0.00 0.00 50 1016.0
20260509215324 67 248 4.0 6.0 0.00 0.00 0.00 52 1016.1
20260509214836 66 217 4.0 7.0 0.00 0.00 0.00 62 1016.0
20260509214605 65 214 4.0 7.0 0.00 0.00 0.00 58 1015.5
20260509214334 66 143 5.0 7.0 0.00 0.00 0.00 56 1016.2
20260509213827 66 246 5.0 6.0 0.00 0.00 0.00 51 1016.3
20260509213323 65 226 2.0 5.0 0.00 0.00 0.00 60 1016.2
20260509213141 64 246 2.0 5.0 0.00 0.00 0.00 62 1015.7
20260509212823 64 231 4.0 6.0 0.00 0.00 0.00 61 1016.4
20260509212334 64 232 4.0 6.0 0.00 0.00 0.00 65 1016.4
20260509211819 65 238 5.0 6.0 0.00 0.00 0.00 65 1016.5
20260509211607 65 239 4.0 6.0 0.00 0.00 0.00 63 1016.0
20260509211356 65 221 5.0 7.0 0.00 0.00 0.00 61 1016.5
20260509210840 66 255 5.0 7.0 0.00 0.00 0.00 57 1016.6
20260509210328 65 212 3.0 6.0 0.00 0.00 0.00 56 1016.7
20260509210105 65 235 3.0 7.0 0.00 0.00 0.00 56 1016.2
20260509205834 66 248 5.0 7.0 0.00 0.00 0.00 51 1016.7
20260509205333 66 235 6.0 7.0 0.00 0.00 0.00 47 1016.9
20260509204822 65 227 6.0 8.0 0.00 0.00 0.00 47 1016.9
20260509204558 65 224 5.0 7.0 0.00 0.00 0.00 49 1016.4
20260509204339 65 236 6.0 7.0 0.00 0.00 0.00 49 1016.9
20260509203832 65 239 5.0 7.0 0.00 0.00 0.00 49 1016.9
20260509203356 65 229 6.0 8.0 0.00 0.00 0.00 49 1017.1
20260509203100 64 234 5.0 7.0 0.00 0.00 0.00 51 1016.6
20260509202818 65 243 4.0 7.0 0.00 0.00 0.00 49 1017.1
20260509202328 64 245 5.0 7.0 0.00 0.00 0.00 52 1017.2
20260509201835 64 219 4.0 6.0 0.00 0.00 0.00 55 1017.2
20260509201617 64 231 3.0 6.0 0.00 0.00 0.00 57 1016.8
20260509201327 64 222 3.0 5.0 0.00 0.00 0.00 50 1017.4
20260509200910 64 224 4.0 6.0 0.00 0.00 0.00 56 1017.5
20260509200339 64 242 1.0 2.0 0.00 0.00 0.00 53 1017.6
20260509200112 63 245 0.0 2.0 0.00 0.00 0.00 52 1017.1
20260509195823 63 232 1.0 2.0 0.00 0.00 0.00 55 1017.6
20260509195322 63 228 0.0 1.0 0.00 0.00 0.00 57 1017.7
20260509194847 63 243 0.0 1.0 0.00 0.00 0.00 48 1017.9
20260509194356 63 242 0.0 1.0 0.00 0.00 0.00 51 1017.9
20260509193843 62 212 0.0 1.0 0.00 0.00 0.00 59 1018.1
20260509193322 62 239 0.0 2.0 0.00 0.00 0.00 57 1018.1
20260509193102 62 249 0.0 2.0 0.00 0.00 0.00 54 1017.6
20260509192822 62 239 2.0 2.0 0.00 0.00 0.00 56 1018.2
20260509192331 62 245 2.0 2.0 0.00 0.00 0.00 50 1018.4
20260509191845 62 240 1.0 3.0 0.00 0.00 0.00 52 1018.4
20260509191609 62 248 1.0 3.0 0.00 0.00 0.00 52 1018.0
20260509191358 62 252 2.0 3.0 0.00 0.00 0.00 54 1018.5
20260509190838 62 215 2.0 3.0 0.00 0.00 0.00 52 1018.6
20260509190342 62 240 1.0 4.0 0.00 0.00 0.00 59 1018.8
20260509190017 61 246 2.0 4.0 0.00 0.00 0.00 55 1018.3
20260509185836 62 232 3.0 5.0 0.00 0.00 0.00 54 1018.8
20260509185325 62 228 3.0 5.0 0.00 0.00 0.00 54 1018.8
20260509184837 61 242 2.0 5.0 0.00 0.00 0.00 57 1018.9
20260509184558 61 235 3.0 5.0 0.00 0.00 0.00 54 1018.5
20260509184332 61 255 3.0 4.0 0.00 0.00 0.00 54 1018.9
20260509183817 61 239 2.0 4.0 0.00 0.00 0.00 53 1018.9
20260509183406 61 242 1.0 3.0 0.00 0.00 0.00 53 1018.9
20260509183008 60 252 1.0 3.0 0.00 0.00 0.00 53 1018.5
20260509182832 61 236 1.0 4.0 0.00 0.00 0.00 56 1019.0
20260509182335 60 211 2.0 4.0 0.00 0.00 0.00 55 1019.1
20260509181827 60 232 3.0 4.0 0.00 0.00 0.00 55 1019.1
20260509181603 59 225 2.0 4.0 0.00 0.00 0.00 56 1018.8
20260509181340 59 218 2.0 4.0 0.00 0.00 0.00 60 1019.3
20260509180835 59 245 2.0 4.0 0.00 0.00 0.00 60 1019.2
20260509180343 59 246 2.0 2.0 0.00 0.00 0.00 61 1019.3
20260509180105 58 248 1.0 2.0 0.00 0.00 0.00 62 1018.9
20260509175837 58 231 1.0 2.0 0.00 0.00 0.00 64 1019.4
20260509175320 58 238 1.0 2.0 0.00 0.00 0.00 61 1019.5
20260509174824 58 242 1.0 2.0 0.00 0.00 0.00 62 1019.6
20260509174602 57 241 0.0 1.0 0.00 0.00 0.00 62 1019.1
20260509174329 58 231 0.0 1.0 0.00 0.00 0.00 59 1019.6
20260509173822 58 235 0.0 1.0 0.00 0.00 0.00 59 1019.6
20260509173322 58 228 0.0 2.0 0.00 0.00 0.00 60 1019.8
20260509173106 57 239 0.0 2.0 0.00 0.00 0.00 62 1019.4
20260509172910 57 243 1.0 2.0 0.00 0.00 0.00 60 1019.9
20260509172321 57 232 0.0 2.0 0.00 0.00 0.00 60 1020.0
20260509171830 57 237 0.0 2.0 0.00 0.00 0.00 59 1020.1
20260509171511 56 226 0.0 2.0 0.00 0.00 0.00 61 1019.6
20260509171331 57 236 0.0 0.0 0.00 0.00 0.00 60 1020.1
20260509170829 57 236 0.0 0.0 0.00 0.00 0.00 60 1020.1
20260509170108 56 250 0.0 0.0 0.00 0.00 0.00 59 1019.7
20260509165830 56 260 0.0 0.0 0.00 0.00 0.00 62 1020.2
20260509164820 56 240 0.0 0.0 0.00 0.00 0.00 61 1020.5
20260509164608 56 246 0.0 1.0 0.00 0.00 0.00 59 1020.0
20260509164334 56 242 0.0 1.0 0.00 0.00 0.00 61 1020.5
20260509163840 56 239 0.0 1.0 0.00 0.00 0.00 60 1020.5
20260509163332 56 252 0.0 1.0 0.00 0.00 0.00 60 1020.5
20260509163200 56 248 0.0 1.0 0.00 0.00 0.00 59 1020.0
20260509162835 57 223 0.0 1.0 0.00 0.00 0.00 57 1020.5
20260509162340 56 222 0.0 1.0 0.00 0.00 0.00 61 1020.6
20260509161831 56 270 0.0 0.0 0.00 0.00 0.00 60 1020.5
20260509161608 55 232 0.0 1.0 0.00 0.00 0.00 60 1020.1
20260509161341 56 243 0.0 1.0 0.00 0.00 0.00 60 1020.6
20260509160830 56 242 0.0 2.0 0.00 0.00 0.00 60 1020.6
20260509160328 56 219 0.0 1.0 0.00 0.00 0.00 61 1020.6
20260509160104 55 232 0.0 1.0 0.00 0.00 0.00 58 1020.2
20260509155833 56 226 0.0 1.0 0.00 0.00 0.00 58 1020.7
20260509155332 56 231 0.0 0.0 0.00 0.00 0.00 60 1020.8
20260509154817 57 243 0.0 0.0 0.00 0.00 0.00 57 1020.7
20260509154612 56 253 0.0 0.0 0.00 0.00 0.00 57 1020.2
20260509154358 57 249 0.0 0.0 0.00 0.00 0.00 56 1020.7
20260509153838 57 245 0.0 0.0 0.00 0.00 0.00 54 1020.7
20260509153334 57 235 0.0 0.0 0.00 0.00 0.00 57 1020.7
20260509153107 56 235 0.0 0.0 0.00 0.00 0.00 57 1020.3
20260509152820 56 245 0.0 0.0 0.00 0.00 0.00 57 1020.7
20260509152339 56 316 0.0 0.0 0.00 0.00 0.00 58 1020.7
20260509151831 56 316 0.0 0.0 0.00 0.00 0.00 57 1020.8
20260509151603 56 331 0.0 0.0 0.00 0.00 0.00 57 1020.4
20260509151341 56 333 0.0 0.0 0.00 0.00 0.00 59 1020.8
20260509150848 55 333 0.0 0.0 0.00 0.00 0.00 58 1020.8
20260509150334 55 333 0.0 0.0 0.00 0.00 0.00 60 1020.8
20260509145823 54 22 0.0 0.0 0.00 0.00 0.00 61 1020.8
20260509145320 54 31 0.0 0.0 0.00 0.00 0.00 61 1020.8
20260509144648 53 28 0.0 0.0 0.00 0.00 0.00 64 1020.4
20260509144322 53 31 0.0 0.0 0.00 0.00 0.00 64 1020.8
20260509143829 53 43 0.0 0.0 0.00 0.00 0.00 65 1020.8
20260509143319 53 29 0.0 0.0 0.00 0.00 0.00 66 1020.8
20260509143057 52 30 0.0 0.0 0.00 0.00 0.00 66 1020.3
20260509142822 53 34 0.0 0.0 0.00 0.00 0.00 68 1020.8
20260509142325 52 25 0.0 0.0 0.00 0.00 0.00 67 1020.7
20260509141831 52 29 0.0 0.0 0.00 0.00 0.00 67 1020.7
20260509141329 52 29 0.0 0.0 0.00 0.00 0.00 68 1020.7
20260509140836 52 29 0.0 0.0 0.00 0.00 0.00 69 1020.6
20260509140333 52 31 0.0 0.0 0.00 0.00 0.00 69 1020.6
20260509140106 51 27 0.0 0.0 0.00 0.00 0.00 67 1020.1
20260509135827 52 28 0.0 0.0 0.00 0.00 0.00 68 1020.6
20260509135322 52 30 0.0 0.0 0.00 0.00 0.00 69 1020.5
20260509134830 51 58 0.0 0.0 0.00 0.00 0.00 67 1020.5
20260509134614 51 72 0.0 0.0 0.00 0.00 0.00 67 1020.1
20260509134347 51 86 0.0 0.0 0.00 0.00 0.00 68 1020.6
20260509133824 50 86 0.0 0.0 0.00 0.00 0.00 69 1020.4
20260509133326 50 60 0.0 0.0 0.00 0.00 0.00 69 1020.4
20260509133119 49 60 0.0 0.0 0.00 0.00 0.00 69 1019.9
20260509132822 49 53 0.0 0.0 0.00 0.00 0.00 69 1020.4
20260509132344 49 41 0.0 0.0 0.00 0.00 0.00 71 1020.4
20260509131840 49 72 0.0 0.0 0.00 0.00 0.00 70 1020.4
20260509131553 49 72 0.0 0.0 0.00 0.00 0.00 70 1019.9
20260509131327 49 62 0.0 0.0 0.00 0.00 0.00 69 1020.3
20260509130839 49 60 0.0 0.0 0.00 0.00 0.00 70 1020.3
20260509130333 49 44 0.0 0.0 0.00 0.00 0.00 69 1020.2
20260509130105 48 75 0.0 0.0 0.00 0.00 0.00 70 1019.8
20260509125843 49 75 0.0 0.0 0.00 0.00 0.00 70 1020.2
20260509125351 49 36 0.0 0.0 0.00 0.00 0.00 71 1020.2
20260509124858 49 97 0.0 0.0 0.00 0.00 0.00 70 1020.1
20260509124613 48 97 0.0 0.0 0.00 0.00 0.00 70 1019.6
20260509124329 48 95 0.0 0.0 0.00 0.00 0.00 71 1020.0
20260509123837 48 97 0.0 0.0 0.00 0.00 0.00 71 1020.0
20260509123340 48 100 0.0 0.0 0.00 0.00 0.00 71 1019.9
20260509123011 47 71 0.0 0.0 0.00 0.00 0.00 71 1019.5
20260509122826 48 79 0.0 0.0 0.00 0.00 0.00 71 1019.9
20260509122330 48 79 0.0 0.0 0.00 0.00 0.00 70 1019.8
20260509121843 48 89 0.0 0.0 0.00 0.00 0.00 70 1019.8
20260509121612 48 80 0.0 0.0 0.00 0.00 0.00 70 1019.3
20260509121328 49 38 0.0 0.0 0.00 0.00 0.00 71 1019.8
20260509120854 49 49 0.0 0.0 0.00 0.00 0.00 68 1019.7
20260509120321 50 114 0.0 0.0 0.00 0.00 0.00 66 1019.8
20260509115817 50 128 0.0 0.0 0.00 0.00 0.00 67 1019.7
20260509115337 49 95 0.0 0.0 0.00 0.00 0.00 66 1019.8
20260509114829 50 95 0.0 0.0 0.00 0.00 0.00 66 1019.7
20260509114625 49 95 0.0 0.0 0.00 0.00 0.00 65 1019.3
20260509114408 50 97 0.0 0.0 0.00 0.00 0.00 65 1019.7
20260509113858 50 97 0.0 0.0 0.00 0.00 0.00 64 1019.6
20260509113327 50 100 0.0 0.0 0.00 0.00 0.00 64 1019.6
20260509113105 50 89 0.0 0.0 0.00 0.00 0.00 64 1019.1
20260509112841 50 89 0.0 0.0 0.00 0.00 0.00 63 1019.6
20260509112319 51 100 0.0 0.0 0.00 0.00 0.00 63 1019.5
20260509111825 51 96 0.0 0.0 0.00 0.00 0.00 63 1019.4
20260509111622 51 84 0.0 0.0 0.00 0.00 0.00 64 1019.0
20260509111358 51 98 0.0 0.0 0.00 0.00 0.00 64 1019.4
20260509110832 51 82 0.0 0.0 0.00 0.00 0.00 63 1019.4
20260509110330 51 91 0.0 0.0 0.00 0.00 0.00 63 1019.3
20260509105817 51 73 0.0 0.0 0.00 0.00 0.00 62 1019.3
20260509105337 52 89 0.0 0.0 0.00 0.00 0.00 61 1019.2
20260509104825 52 121 0.0 0.0 0.00 0.00 0.00 59 1019.1
20260509104508 52 121 0.0 0.0 0.00 0.00 0.00 59 1018.5
20260509104331 52 121 0.0 0.0 0.00 0.00 0.00 59 1019.0
20260509103837 52 105 0.0 0.0 0.00 0.00 0.00 58 1019.0
20260509103336 53 78 0.0 0.0 0.00 0.00 0.00 58 1018.9
20260509103102 52 72 0.0 0.0 0.00 0.00 0.00 58 1018.4
20260509102820 53 81 0.0 0.0 0.00 0.00 0.00 58 1018.9
20260509102336 53 87 0.0 0.0 0.00 0.00 0.00 58 1018.8
20260509101854 53 82 0.0 4.0 0.00 0.00 0.00 57 1018.8
20260509101558 53 65 0.0 4.0 0.00 0.00 0.00 58 1018.2
20260509101327 53 22 1.0 4.0 0.00 0.00 0.00 58 1018.7
20260509100817 53 70 0.0 0.0 0.00 0.00 0.00 57 1018.6
20260509100331 53 276 0.0 2.0 0.00 0.00 0.00 56 1018.6
20260509100104 52 101 0.0 2.0 0.00 0.00 0.00 57 1018.0
20260509095851 53 87 0.0 2.0 0.00 0.00 0.00 61 1018.6
20260509095331 54 37 0.0 0.0 0.00 0.00 0.00 55 1018.5
20260509094828 55 155 0.0 0.0 0.00 0.00 0.00 53 1018.4
20260509094506 55 150 0.0 0.0 0.00 0.00 0.00 50 1017.8
20260509094325 55 92 0.0 1.0 0.00 0.00 0.00 50 1018.3
20260509093836 56 208 0.0 4.0 0.00 0.00 0.00 49 1018.2
20260509093331 56 203 0.0 4.0 0.00 0.00 0.00 50 1018.2
20260509093104 55 170 0.0 1.0 0.00 0.00 0.00 50 1017.6
20260509092843 55 278 0.0 1.0 0.00 0.00 0.00 52 1018.1
20260509092358 55 164 0.0 1.0 0.00 0.00 0.00 51 1018.0
20260509091827 55 87 0.0 1.0 0.00 0.00 0.00 51 1018.0
20260509091635 55 108 0.0 1.0 0.00 0.00 0.00 50 1017.4
20260509091320 56 99 0.0 1.0 0.00 0.00 0.00 50 1017.9
20260509090835 56 215 0.0 1.0 0.00 0.00 0.00 50 1017.9
20260509090321 56 135 0.0 1.0 0.00 0.00 0.00 50 1017.8
20260509090057 55 143 0.0 1.0 0.00 0.00 0.00 50 1017.2
20260509085833 56 113 0.0 1.0 0.00 0.00 0.00 49 1017.7
20260509085335 56 176 0.0 0.0 0.00 0.00 0.00 49 1017.7
20260509084845 57 204 0.0 1.0 0.00 0.00 0.00 48 1017.7
20260509084557 56 193 0.0 1.0 0.00 0.00 0.00 48 1017.1
20260509084344 57 134 0.0 5.0 0.00 0.00 0.00 48 1017.7
20260509083833 57 176 0.0 5.0 0.00 0.00 0.00 48 1017.6
20260509083334 57 188 0.0 5.0 0.00 0.00 0.00 48 1017.6
20260509083101 56 201 0.0 5.0 0.00 0.00 0.00 48 1017.0
20260509082827 57 231 0.0 4.0 0.00 0.00 0.00 48 1017.6
20260509082331 57 193 0.0 4.0 0.00 0.00 0.00 48 1017.5
20260509081348 57 236 0.0 1.0 0.00 0.00 0.00 50 1017.5
20260509080841 57 236 0.0 1.0 0.00 0.00 0.00 49 1017.5
20260509080338 57 177 0.0 2.0 0.00 0.00 0.00 48 1017.5
20260509080115 57 214 0.0 5.0 0.00 0.00 0.00 48 1017.0
20260509075820 57 228 0.0 5.0 0.00 0.00 0.00 48 1017.5
20260509075337 57 183 2.0 8.0 0.00 0.00 0.00 48 1017.4
20260509074821 58 163 1.0 8.0 0.00 0.00 0.00 47 1017.4
20260509074604 57 163 0.0 5.0 0.00 0.00 0.00 47 1016.8
20260509074347 58 206 1.0 5.0 0.00 0.00 0.00 47 1017.3
20260509073834 58 243 1.0 5.0 0.00 0.00 0.00 48 1017.3
20260509073339 58 201 1.0 6.0 0.00 0.00 0.00 47 1017.2
20260509073138 57 174 1.0 6.0 0.00 0.00 0.00 48 1016.6
20260509072832 58 195 1.0 6.0 0.00 0.00 0.00 48 1017.1
20260509072333 58 166 0.0 7.0 0.00 0.00 0.00 49 1017.0
20260509071823 57 219 1.0 7.0 0.00 0.00 0.00 50 1017.0
20260509071616 57 211 0.0 7.0 0.00 0.00 0.00 49 1016.4
20260509071333 57 195 0.0 2.0 0.00 0.00 0.00 48 1017.0
20260509070827 58 174 0.0 3.0 0.00 0.00 0.00 48 1016.9
20260509070335 58 129 0.0 1.0 0.00 0.00 0.00 48 1016.9
20260509070107 58 153 0.0 1.0 0.00 0.00 0.00 48 1016.3
20260509065824 58 149 0.0 3.0 0.00 0.00 0.00 48 1016.9
20260509064839 59 208 0.0 3.0 0.00 0.00 0.00 52 1016.8
20260509064624 58 169 0.0 5.0 0.00 0.00 0.00 53 1016.2
20260509064331 59 193 0.0 8.0 0.00 0.00 0.00 55 1016.8
20260509063825 59 213 2.0 8.0 0.00 0.00 0.00 57 1016.8
20260509063319 59 239 2.0 6.0 0.00 0.00 0.00 52 1016.7
20260509063110 59 217 0.0 3.0 0.00 0.00 0.00 48 1016.1
20260509062831 59 225 0.0 1.0 0.00 0.00 0.00 46 1016.6
20260509062346 59 179 0.0 5.0 0.00 0.00 0.00 46 1016.6
20260509061826 59 198 1.0 5.0 0.00 0.00 0.00 46 1016.5
20260509061600 59 155 0.0 4.0 0.00 0.00 0.00 47 1015.9
20260509061334 60 155 0.0 4.0 0.00 0.00 0.00 47 1016.5
20260509060828 60 210 0.0 6.0 0.00 0.00 0.00 45 1016.5
20260509060340 60 152 2.0 6.0 0.00 0.00 0.00 45 1016.3
20260509060029 60 121 0.0 5.0 0.00 0.00 0.00 44 1015.6
20260509055839 61 135 0.0 8.0 0.00 0.00 0.00 45 1016.3
20260509055319 61 183 2.0 8.0 0.00 0.00 0.00 44 1016.2
20260509054840 61 137 2.0 9.0 0.00 0.00 0.00 44 1016.1
20260509054614 61 190 2.0 9.0 0.00 0.00 0.00 44 1015.5
20260509054319 61 213 2.0 11.0 0.00 0.00 0.00 45 1016.1
20260509053848 62 188 4.0 13.0 0.00 0.00 0.00 45 1016.0
20260509053319 62 171 9.0 16.0 0.00 0.00 0.00 46 1015.9
20260509053107 61 219 11.0 16.0 0.00 0.00 0.00 51 1015.2
20260509052819 62 233 14.0 16.0 0.00 0.00 0.00 49 1015.8
20260509052328 62 231 12.0 21.0 0.00 0.00 0.00 54 1015.7
20260509051820 62 253 9.0 17.0 0.00 0.00 0.00 45 1015.7
20260509051603 61 231 12.0 17.0 0.00 0.00 0.00 51 1015.1
20260509051321 62 248 13.0 17.0 0.00 0.00 0.00 53 1015.6
20260509050833 62 222 10.0 14.0 0.00 0.00 0.00 53 1015.6
20260509050345 62 212 11.0 13.0 0.00 0.00 0.00 50 1015.5
20260509050113 62 228 9.0 13.0 0.00 0.00 0.00 44 1014.7
20260509045842 62 243 7.0 13.0 0.00 0.00 0.00 48 1015.4
20260509045323 62 180 4.0 13.0 0.00 0.00 0.00 46 1015.2
20260509044830 63 236 4.0 15.0 0.00 0.00 0.00 43 1015.1
20260509044603 62 236 6.0 15.0 0.00 0.00 0.00 42 1014.5
20260509044348 63 171 7.0 15.0 0.00 0.00 0.00 42 1015.0
20260509043826 63 225 5.0 15.0 0.00 0.00 0.00 41 1015.0
20260509043331 63 204 10.0 15.0 0.00 0.00 0.00 45 1015.0
20260509043059 63 231 9.0 15.0 0.00 0.00 0.00 43 1014.3
20260509042825 63 226 7.0 13.0 0.00 0.00 0.00 42 1014.8
20260509042343 63 215 7.0 13.0 0.00 0.00 0.00 43 1014.9
20260509041852 63 226 7.0 20.0 0.00 0.00 0.00 44 1014.7
20260509040819 63 242 17.0 23.0 0.00 0.00 0.00 47 1014.5
20260509040321 64 249 18.0 22.0 0.00 0.00 0.00 47 1014.5
20260509040008 63 245 15.0 22.0 0.00 0.00 0.00 47 1013.6
20260509035831 63 184 16.0 19.0 0.00 0.00 0.00 46 1014.3
20260509035330 63 238 14.0 17.0 0.00 0.00 0.00 50 1014.1
20260509034821 64 236 13.0 17.0 0.00 0.00 0.00 49 1014.0
20260509034511 63 236 13.0 20.0 0.00 0.00 0.00 50 1013.3
20260509034333 64 242 12.0 20.0 0.00 0.00 0.00 47 1014.0
20260509033826 64 241 17.0 22.0 0.00 0.00 0.00 42 1013.8
20260509033339 64 232 19.0 23.0 0.00 0.00 0.00 42 1013.8
20260509033059 64 249 18.0 24.0 0.00 0.00 0.00 45 1013.0
20260509032833 65 252 19.0 24.0 0.00 0.00 0.00 44 1013.7
20260509032318 65 249 19.0 24.0 0.00 0.00 0.00 42 1013.6
20260509031854 64 246 14.0 16.0 0.00 0.00 0.00 46 1013.5
20260509031514 64 228 7.0 13.0 0.00 0.00 0.00 46 1012.7
20260509031328 64 243 4.0 12.0 0.00 0.00 0.00 49 1013.4
20260509030826 65 241 0.0 1.0 0.00 0.00 0.00 54 1013.3
20260509030325 65 211 0.0 1.0 0.00 0.00 0.00 39 1013.3
20260509030113 65 228 0.0 1.0 0.00 0.00 0.00 39 1012.5
20260509025829 65 211 0.0 1.0 0.00 0.00 0.00 39 1013.2
20260509025323 65 214 0.0 1.0 0.00 0.00 0.00 40 1013.1
20260509024839 65 242 0.0 1.0 0.00 0.00 0.00 48 1013.1
20260509024607 65 252 0.0 1.0 0.00 0.00 0.00 46 1012.4
20260509024328 66 228 0.0 1.0 0.00 0.00 0.00 44 1013.0
20260509023859 66 235 0.0 1.0 0.00 0.00 0.00 39 1012.9
20260509023349 66 226 0.0 1.0 0.00 0.00 0.00 42 1012.9
20260509023102 65 163 0.0 3.0 0.00 0.00 0.00 43 1012.2
20260509022841 65 239 0.0 3.0 0.00 0.00 0.00 50 1012.8
20260509022327 66 252 1.0 2.0 0.00 0.00 0.00 44 1012.8
20260509021831 66 235 0.0 1.0 0.00 0.00 0.00 42 1012.8
20260509021602 65 228 0.0 2.0 0.00 0.00 0.00 42 1012.1
20260509021400 65 203 0.0 2.0 0.00 0.00 0.00 44 1012.7
20260509020843 65 257 0.0 7.0 0.00 0.00 0.00 52 1012.6
20260509020356 66 226 2.0 12.0 0.00 0.00 0.00 48 1012.6
20260509020154 66 214 5.0 12.0 0.00 0.00 0.00 47 1012.0
20260509015839 66 280 10.0 17.0 0.00 0.00 0.00 40 1012.6
20260509015332 66 262 8.0 17.0 0.00 0.00 0.00 41 1012.6
20260509014834 66 250 14.0 16.0 0.00 0.00 0.00 44 1012.5
20260509014601 66 256 11.0 18.0 0.00 0.00 0.00 39 1011.8
20260509014317 66 286 8.0 18.0 0.00 0.00 0.00 37 1012.5
20260509013847 66 255 16.0 23.0 0.00 0.00 0.00 43 1012.6
20260509013343 66 262 15.0 19.0 0.00 0.00 0.00 42 1012.4
20260509013111 66 255 14.0 17.0 0.00 0.00 0.00 41 1011.6
20260509012817 66 250 12.0 18.0 0.00 0.00 0.00 43 1012.4
20260509012328 66 232 8.0 19.0 0.00 0.00 0.00 40 1012.4
20260509011831 66 255 14.0 19.0 0.00 0.00 0.00 43 1012.4
20260509011605 66 270 15.0 19.0 0.00 0.00 0.00 44 1011.6
20260509011336 66 255 16.0 21.0 0.00 0.00 0.00 44 1012.4
20260509010819 67 255 15.0 21.0 0.00 0.00 0.00 43 1012.2
20260509010318 67 238 11.0 15.0 0.00 0.00 0.00 45 1012.2
20260509005819 67 267 9.0 15.0 0.00 0.00 0.00 43 1012.0
20260509005335 67 248 11.0 13.0 0.00 0.00 0.00 43 1012.3
20260509004835 66 242 5.0 6.0 0.00 0.00 0.00 51 1012.2
20260509004610 66 259 4.0 6.0 0.00 0.00 0.00 45 1011.3
20260509004333 67 264 3.0 11.0 0.00 0.00 0.00 52 1012.1
20260509003831 68 225 3.0 11.0 0.00 0.00 0.00 45 1012.2
20260509003055 68 282 6.0 11.0 0.00 0.00 0.00 37 1011.3
20260509002829 69 263 8.0 11.0 0.00 0.00 0.00 39 1012.1
20260509002323 68 315 6.0 11.0 0.00 0.00 0.00 35 1012.2
20260509001823 68 242 1.0 3.0 0.00 0.00 0.00 38 1012.2
20260509001613 67 239 0.0 3.0 0.00 0.00 0.00 40 1011.3
20260509001330 68 203 0.0 6.0 0.00 0.00 0.00 40 1012.0
20260509000823 68 228 2.0 7.0 0.00 0.00 0.00 42 1012.0
20260509000333 68 266 3.0 14.0 0.00 0.00 0.00 38 1012.1
20260509000100 67 270 4.0 14.0 0.00 0.00 0.00 39 1011.3
20260508235830 67 268 8.0 14.0 0.00 0.00 0.00 41 1012.1
20260508235346 67 277 9.0 11.0 0.00 0.00 0.00 42 1012.1
20260508234821 67 246 3.0 5.0 0.00 0.00 0.00 45 1012.2
20260508234335 67 239 2.0 5.0 0.00 0.00 0.00 48 1012.1
20260508233823 67 238 2.0 12.0 0.00 0.00 0.00 45 1012.1
20260508233327 67 219 8.0 13.0 0.00 0.00 0.00 38 1012.0
20260508233058 66 287 9.0 14.0 0.00 0.00 0.00 42 1011.3
20260508232838 67 239 8.0 18.0 0.00 0.00 0.00 44 1012.0
20260508232350 67 263 9.0 18.0 0.00 0.00 0.00 46 1012.0
20260508231826 67 271 13.0 23.0 0.00 0.00 0.00 40 1011.9
20260508231606 66 269 12.0 23.0 0.00 0.00 0.00 48 1011.1